FW3299 Weather Reports


Display with metric or nautical units.
time (UTC)temp
F
wind
direction
speed
MPH
gust
MPH
rain 1hr
in
rain 24hr
in
rain mn
in
humidity
%
barometer
mb
20260510204019 85 293 1.0 3.0 0.00 0.01 0.01 73 1014.2
20260510203039 84 248 3.0 7.0 0.00 0.01 0.01 72 1014.2
20260510202019 81 248 3.0 7.0 0.00 0.01 0.01 75 1014.3
20260510201019 79 225 2.0 7.0 0.00 0.01 0.01 80 1014.4
20260510200019 79 248 1.0 3.0 0.00 0.01 0.01 82 1014.3
20260510195019 79 225 3.0 8.0 0.00 0.01 0.01 80 1014.5
20260510194039 80 270 2.0 4.0 0.00 0.01 0.01 81 1014.2
20260510193019 79 270 3.0 10.0 0.00 0.01 0.01 83 1014.3
20260510192019 79 0.0 2.0 0.00 0.01 0.01 83 1014.6
20260510191019 80 293 2.0 4.0 0.00 0.01 0.01 80 1014.6
20260510190019 80 293 2.0 5.0 0.00 0.01 0.01 79 1014.5
20260510185019 80 338 3.0 8.0 0.00 0.01 0.01 77 1014.6
20260510184019 80 315 5.0 10.0 0.00 0.01 0.01 77 1014.8
20260510183019 80 0 7.0 15.0 0.00 0.01 0.01 75 1015.2
20260510182019 83 293 10.0 21.0 0.00 0.01 0.01 68 1014.9
20260510181019 88 293 3.0 11.0 0.00 0.01 0.01 62 1014.6
20260510180019 90 203 2.0 7.0 0.00 0.01 0.01 58 1014.5
20260510175019 90 180 2.0 6.0 0.00 0.01 0.01 61 1014.4
20260510174019 90 248 2.0 4.0 0.00 0.01 0.01 58 1014.5
20260510173019 92 113 2.0 5.0 0.00 0.01 0.01 58 1014.7
20260510172019 92 225 2.0 8.0 0.00 0.01 0.01 60 1014.9
20260510171019 92 293 6.0 11.0 0.00 0.01 0.01 59 1015.1
20260510170019 91 293 3.0 8.0 0.00 0.01 0.01 59 1015.3
20260510165019 93 270 4.0 10.0 0.00 0.01 0.01 64 1015.3
20260510164019 90 293 2.0 5.0 0.00 0.01 0.01 62 1015.5
20260510163019 89 293 2.0 7.0 0.00 0.01 0.01 65 1015.7
20260510162019 89 203 2.0 10.0 0.00 0.01 0.01 65 1015.6
20260510161019 89 135 4.0 9.0 0.00 0.01 0.01 64 1015.7
20260510160019 89 248 3.0 9.0 0.00 0.01 0.01 64 1015.7
20260510155019 89 180 4.0 9.0 0.00 0.01 0.01 65 1015.7
20260510154019 88 203 4.0 12.0 0.00 0.01 0.01 67 1015.7
20260510153019 86 225 4.0 10.0 0.00 0.01 0.01 70 1015.6
20260510152019 86 180 4.0 10.0 0.00 0.01 0.01 71 1015.6
20260510151019 86 225 3.0 8.0 0.00 0.01 0.01 73 1015.7
20260510150019 83 180 2.0 6.0 0.00 0.01 0.01 75 1015.8
20260510145019 83 203 2.0 5.0 0.00 0.01 0.01 75 1015.7
20260510144019 84 203 2.0 6.0 0.00 0.01 0.01 74 1015.7
20260510143019 83 248 2.0 8.0 0.00 0.01 0.01 76 1015.6
20260510142039 81 180 1.0 8.0 0.00 0.01 0.01 81 1015.5
20260510141019 81 158 1.0 8.0 0.00 0.01 0.01 83 1015.6
20260510140019 80 225 1.0 5.0 0.00 0.01 0.01 89 1015.6
20260510135019 77 0.0 2.0 0.00 0.01 0.01 93 1015.6
20260510134019 76 203 1.0 4.0 0.00 0.01 0.01 93 1015.5
20260510133019 76 0.0 3.0 0.00 0.01 0.01 94 1015.3
20260510132019 76 180 1.0 5.0 0.00 0.01 0.01 94 1015.3
20260510131019 76 180 1.0 4.0 0.00 0.01 0.01 94 1015.1
20260510130039 75 0.0 1.0 0.00 0.01 0.01 94 1015.1
20260510125019 75 0.0 2.0 0.00 0.01 0.01 94 1014.9
20260510124019 75 203 1.0 3.0 0.00 0.01 0.01 94 1015.0
20260510123019 74 0.0 2.0 0.00 0.01 0.01 94 1014.9
20260510122019 74 180 1.0 3.0 0.00 0.01 0.01 94 1014.8
20260510121019 74 0.0 3.0 0.00 0.01 0.01 94 1014.7
20260510120019 73 203 1.0 2.0 0.00 0.01 0.01 94 1014.5
20260510115018 73 203 1.0 3.0 0.00 0.01 0.01 93 1014.1
20260510114018 72 0.0 0.0 0.00 0.01 0.01 93 1014.0
20260510113019 72 0.0 2.0 0.00 0.01 0.01 93 1014.0
20260510112019 72 180 1.0 4.0 0.00 0.01 0.01 93 1013.9
20260510111019 72 0.0 2.0 0.00 0.01 0.01 93 1013.8
20260510110039 72 0.0 0.0 0.00 0.01 0.01 93 1013.8
20260510105039 72 0.0 0.0 0.00 0.01 0.01 93 1013.4
20260510104019 72 0 1.0 2.0 0.00 0.01 0.01 93 1013.4
20260510103019 72 0.0 3.0 0.00 0.01 0.01 93 1013.2
20260510102019 72 0.0 0.0 0.00 0.01 0.01 92 1013.0
20260510101019 72 0.0 1.0 0.00 0.01 0.01 92 1013.0
20260510100018 72 0 1.0 2.0 0.00 0.01 0.01 92 1012.8
20260510095019 72 0.0 3.0 0.00 0.01 0.01 92 1012.7
20260510094019 72 0.0 2.0 0.00 0.01 0.01 92 1012.6
20260510093018 72 0 1.0 3.0 0.00 0.01 0.01 92 1012.7
20260510092019 72 0 1.0 2.0 0.00 0.01 0.01 92 1012.7
20260510091019 72 0.0 2.0 0.00 0.01 0.01 92 1012.6
20260510090019 72 0.0 4.0 0.00 0.01 0.01 92 1012.5
20260510085018 72 0.0 1.0 0.00 0.01 0.01 92 1012.3
20260510084019 72 0.0 0.0 0.00 0.01 0.01 91 1012.2
20260510083018 72 0.0 2.0 0.00 0.01 0.01 91 1012.2
20260510082018 72 0.0 1.0 0.00 0.01 0.01 91 1012.3
20260510081018 72 0.0 2.0 0.00 0.01 0.01 91 1012.4
20260510080018 72 0 1.0 1.0 0.00 0.01 0.01 91 1012.5
20260510075019 72 0.0 1.0 0.00 0.01 0.01 91 1012.6
20260510074019 72 0.0 2.0 0.00 0.01 0.01 91 1012.4
20260510073019 72 0.0 0.0 0.00 0.01 0.01 91 1012.6
20260510072018 72 0.0 0.0 0.00 0.01 0.01 91 1012.7
20260510071018 72 0.0 0.0 0.00 0.01 0.01 90 1013.0
20260510070019 72 0.0 0.0 0.01 0.01 0.01 90 1013.0
20260510065018 72 0.0 0.0 0.01 0.01 0.01 90 1013.1
20260510064018 72 0.0 0.0 0.01 0.01 0.01 90 1013.2
20260510063018 72 0.0 0.0 0.01 0.01 0.01 90 1013.1
20260510062018 72 0.0 2.0 0.01 0.01 0.01 90 1013.1
20260510061019 72 0.0 2.0 0.01 0.01 0.01 89 1013.4
20260510060019 72 0.0 0.0 0.00 0.00 0.00 89 1013.5
20260510055019 73 0.0 0.0 0.00 0.00 0.00 89 1013.4
20260510054018 73 0.0 0.0 0.00 0.00 0.00 89 1013.6
20260510053018 73 0.0 0.0 0.00 0.00 0.00 89 1013.7
20260510052018 73 0.0 0.0 0.00 0.00 0.00 88 1013.8
20260510051019 73 0.0 0.0 0.00 0.00 0.00 88 1013.9
20260510050018 73 0.0 0.0 0.00 0.00 0.00 88 1014.0
20260510045019 73 0.0 0.0 0.00 0.00 0.00 88 1014.0
20260510044018 74 0.0 0.0 0.00 0.00 0.00 88 1014.1
20260510043019 74 0.0 0.0 0.00 0.00 0.00 87 1014.0
20260510042018 74 0.0 2.0 0.00 0.00 0.00 87 1014.2
20260510041019 74 0.0 0.0 0.00 0.00 0.00 87 1014.1
20260510040018 74 0.0 1.0 0.00 0.00 0.00 87 1014.2
20260510035019 75 0.0 0.0 0.00 0.00 0.00 87 1014.1
20260510034019 75 0.0 0.0 0.00 0.00 0.00 87 1014.2
20260510033019 75 0.0 2.0 0.00 0.00 0.00 87 1014.2
20260510032019 75 0 1.0 3.0 0.00 0.00 0.00 86 1013.9
20260510031039 76 0.0 2.0 0.00 0.00 0.00 86 1013.9
20260510030019 76 0.0 3.0 0.00 0.00 0.00 86 1014.1
20260510025019 76 135 1.0 3.0 0.00 0.00 0.00 86 1013.9
20260510024019 76 90 1.0 3.0 0.00 0.00 0.00 86 1014.1
20260510023019 76 23 1.0 4.0 0.00 0.00 0.00 86 1013.9
20260510022019 77 23 1.0 4.0 0.00 0.00 0.00 86 1013.9
20260510021019 77 23 1.0 3.0 0.00 0.00 0.00 86 1013.9
20260510020039 77 0.0 1.0 0.00 0.00 0.00 85 1013.7
20260510015019 77 23 1.0 4.0 0.00 0.01 0.00 85 1013.5
20260510014019 77 23 2.0 5.0 0.00 0.01 0.00 85 1013.4
20260510013019 78 23 1.0 2.0 0.00 0.01 0.00 84 1013.2
20260510012059 78 23 1.0 5.0 0.00 0.01 0.00 84 1013.1
20260510011019 78 23 1.0 3.0 0.00 0.01 0.00 84 1013.4
20260510010019 78 0.0 2.0 0.00 0.01 0.00 84 1013.3
20260510005020 78 23 1.0 5.0 0.00 0.01 0.00 83 1013.0
20260510004019 78 23 1.0 3.0 0.00 0.01 0.00 83 1012.7
20260510003019 79 23 2.0 7.0 0.00 0.01 0.00 83 1012.6
20260510002019 79 23 2.0 4.0 0.00 0.01 0.00 82 1012.4
20260510001019 79 23 3.0 6.0 0.00 0.01 0.00 82 1012.2
20260510000019 79 23 3.0 7.0 0.00 0.01 0.00 82 1012.1
20260509235019 80 45 4.0 10.0 0.00 0.01 0.00 82 1012.0
20260509234019 80 23 4.0 8.0 0.00 0.01 0.00 81 1011.9
20260509233019 81 23 2.0 6.0 0.00 0.01 0.00 80 1011.7
20260509232019 81 0 3.0 8.0 0.00 0.01 0.00 79 1011.6
20260509231019 82 0 5.0 12.0 0.00 0.01 0.00 77 1011.5
20260509230039 83 0 5.0 13.0 0.00 0.01 0.00 76 1011.3
20260509225019 85 45 4.0 11.0 0.00 0.01 0.00 72 1011.1
20260509224039 86 23 4.0 10.0 0.00 0.01 0.00 68 1010.9
20260509223019 86 315 4.0 10.0 0.00 0.01 0.00 66 1010.8
20260509222019 87 338 4.0 10.0 0.00 0.01 0.00 66 1010.7
20260509221019 87 338 5.0 11.0 0.00 0.01 0.00 64 1010.4
20260509220019 89 0 3.0 7.0 0.00 0.01 0.00 62 1010.5
20260509215019 89 315 6.0 13.0 0.00 0.01 0.00 61 1010.3
20260509214019 89 315 4.0 9.0 0.00 0.01 0.00 61 1010.4
20260509213039 91 315 5.0 11.0 0.00 0.01 0.00 58 1010.3
20260509212019 90 315 5.0 13.0 0.00 0.01 0.00 59 1010.2
20260509211019 91 338 5.0 11.0 0.00 0.01 0.00 60 1010.2
20260509210019 90 315 8.0 16.0 0.00 0.01 0.00 59 1010.3
20260509205019 92 315 9.0 15.0 0.00 0.01 0.00 57 1010.3